Voltar ao catálogo

TRAILBLAZER 2

AtivoCiênciaLEO
NORAD 27609·PAYLOAD·🇺🇸 United States

Lançado Dec 20, 2002 de Baikonur Cosmodrome

Loading…

Próximas Passagens (próximas 24 horas)

TLE

AtualizadoSource: Space-Track

Época: Sep 14, 2026, 11:03 UTC

1 27609U 02058E   26257.46044988  .00000213  00000-0  45534-4 0  9995
2 27609  64.5548  61.3598 0042678 231.5601 128.1671 14.81398226280915

Acompanhe TRAILBLAZER 2 em tempo real com AllMySat

Download on the App Store